Location: Shenandoah County Park
(38.9356°N, 78.4524°W)
Time: 19:59:41
(UTC-04:00)

Vanguard 1 - Visible Passes

Search period start: 01 November 2024 00:00
Search period end: 10 November 2024 23:00
Orbit: 649 x 3824 km, 34.3° (Epoch: 01 November)

Date Brightness Start Highest point End Pass type
(mag) Time Alt. Az. Time Alt. Az. Time Alt. Az.
01 Nov 12.4 03:04:15 51° ESE 03:04:15 51° ESE 03:17:54 10° E visible
01 Nov 12.1 05:16:51 42° WSW 05:23:26 66° SSW 05:45:31 10° ESE visible
02 Nov 13.7 01:10:15 10° E 01:10:15 10° E 01:10:28 10° E visible
02 Nov 12.2 03:22:51 58° ESE 03:22:51 58° ESE 03:38:12 10° E visible
02 Nov 12.3 05:35:27 35° W 05:43:22 60° SSW 06:05:14 10° SE visible
03 Nov 13.6 01:28:52 14° E 01:28:52 14° E 01:30:43 10° E visible
03 Nov 12.0 02:41:28 64° SE 02:41:28 64° SE 02:58:25 10° ESE visible
03 Nov 12.5 04:54:04 28° W 05:03:15 54° SSW 05:24:41 10° SE visible
04 Nov 13.4 00:47:31 18° E 00:47:31 18° E 00:50:57 10° E visible
04 Nov 11.9 03:00:07 67° SSE 03:00:07 67° SSE 03:18:32 10° ESE visible
04 Nov 12.6 05:12:44 22° W 05:23:06 46° SSW 05:43:48 10° SE visible
05 Nov 13.2 01:06:11 22° E 01:06:11 22° E 01:11:10 10° E visible
05 Nov 11.9 03:18:47 63° SSW 03:18:55 63° SSW 03:38:29 10° ESE visible
05 Nov 12.8 05:31:24 16° W 05:42:55 39° SSW 06:02:33 10° SSE visible
06 Nov 13.1 01:24:52 27° ESE 01:24:52 27° ESE 01:31:22 10° E visible
06 Nov 11.9 03:37:29 56° SW 03:38:45 57° SSW 03:58:13 10° SE visible
06 Nov 13.0 05:50:05 11° W 06:02:42 32° SSW 06:20:48 10° SSE visible
07 Nov 12.9 01:43:34 31° ESE 01:43:34 31° ESE 01:51:31 10° ESE visible
07 Nov 12.1 03:56:11 47° SW 03:58:35 50° SSW 04:17:40 10° SE visible
07 Nov 13.2 06:10:20 10° W 06:22:29 25° SW 06:38:26 10° S visible
08 Nov 12.7 02:02:17 35° ESE 02:02:17 35° ESE 02:11:34 10° ESE visible
08 Nov 12.2 04:14:54 38° SW 04:18:24 43° SSW 04:36:47 10° SE visible
09 Nov 12.6 02:21:01 38° SE 02:21:01 38° SE 02:31:27 10° ESE visible
09 Nov 12.5 04:33:38 30° WSW 04:38:13 35° SSW 04:55:30 10° SSE visible
10 Nov 12.5 02:39:46 40° SSE 02:39:46 40° SSE 02:51:08 10° SE visible
10 Nov 12.7 04:52:23 23° WSW 04:58:02 28° SSW 05:13:42 10° SSE visible
